Miscellaneous Local Product
Issued by NWS Hastings, NE

Home | Current Version | Previous Version | Graphics & Text | Print | Product List | Glossary On
Versions: 1 2 3 4 5 6 7 8 9 10 11 12 13 14 15 16 17 18 19 20 21 22 23 24 25 26 27 28 29 30 31 32 33 34 35 36 37 38 39 40 41 42 43 44 45 46 47 48 49 50
000
AXUS43 KGID 221902
MISGRI

GID CWA HOURLY WEATHER ROUNDUP
NATIONAL WEATHER SERVICE HASTINGS NE
100 PM CST MON JAN 22 2018

NOTE: "FAIR" INDICATES FEW OR NO CLOUDS BELOW 12,000 FEET WITH NO
SIGNIFICANT WEATHER AND/OR OBSTRUCTIONS TO VISIBILITY.

...SOUTH CENTRAL NEBRASKA...

CITY           SKY/WX    TMP DP  RH WIND       PRES   REMARKS
GRAND ISLAND   FOG       27  26  96 NW37G47   29.67R VSB 1/4 WCI   9
KEARNEY        NOT AVBL
HASTINGS       FOG       28  25  88 NW32G47   29.68R VSB 3/4 WCI  12
ORD            CLOUDY    28  23  81 N29G41    29.76S HAZE    WCI  12
YORK           SNOW      28  28 100 N24G33    29.59R VSB 1/2 WCI  14
AURORA         CLOUDY    28  28  97 NW40G51   29.64R WCI  10
LEXINGTON      CLOUDY    31  26  81 NW15      29.81F WCI  20
HOLDREGE       CLOUDY    32  27  81 NW10G18   29.76S WCI  24
HEBRON         LGT SNOW  31  29  90 NW24G40   29.60R VSB 3/4 WCI  18

...NEBRASKA PANHANDLE...

CITY           SKY/WX    TMP DP  RH WIND       PRES   REMARKS
CHADRON        SUNNY     23  13  65 NW20G28   30.01F WCI   8
ALLIANCE       SUNNY     25  17  72 W10       29.96F WCI  15
SCOTTSBLUFF    SUNNY     27  15  61 W16       30.00F WCI  15
SIDNEY         SUNNY     30  17  58 NW20G28   29.97F WCI  17

...WESTERN AND NORTH CENTRAL NEBRASKA...

CITY           SKY/WX    TMP DP  RH WIND       PRES   REMARKS
VALENTINE      PTSUNNY   30  22  72 NW15G23   29.90F WCI  19
AINSWORTH      CLOUDY    28  24  84 NW20      29.87F WCI  15
ONEILL         CLOUDY    25  23  94 NW23G32   29.81S WCI   9
BROKEN BOW     CLOUDY    30  23  75 NW26G38   29.79F WCI  16
IMPERIAL       FLURRIES  30  20  66 NW24G32   29.92F WCI  16
NORTH PLATTE   MIX PCPN  30  21  69 NW24      29.89F WCI  16
MCCOOK         MIX PCPN  31  24  75 NW28G37   29.87F WCI  17

...EASTERN NEBRASKA...

CITY           SKY/WX    TMP DP  RH WIND       PRES   REMARKS
NORFOLK        FOG       24  23  96 NW36G49   29.61R VSB 1/2 WCI   6
SO SIOUX CITY  SNOW      29  28  96 N32G38    29.58R VSB 1/4 WCI  13
COLUMBUS       SNOW      28  26  92 MISG      29.58F VSB 1/4
ALBION         SNOW      26  24  89 NW32G44   29.67R VSB 1/4 WCI   9
OMAHA EPPLEY   LGT SNOW  33  31  92 N23G33    29.46R VSB 3/4 WCI  21
OFFUTT AFB     LGT SNOW  33  32  94 NW15      29.44R VSB 1   WCI  23
MILLARD        LGT SNOW  32  31  96 N18G30    29.47R VSB 1   WCI  21
LINCOLN        LGT SNOW  29  26  89 N35G48    29.51R VSB 3/4 WCI  12
NEBRASKA CITY  LGT SNOW  33  33 100 N24G31    29.40F WCI  20
BEATRICE       LGT SNOW  32  29  90 N33G41    29.51S WCI  16
FALLS CITY     CLOUDY    33  32  96 NW18      29.40F FOG     WCI  22

...NORTHERN KANSAS...

CITY           SKY/WX    TMP DP  RH WIND       PRES   REMARKS
GOODLAND       FLURRIES  29  20  69 NW23      29.93F WCI  15
HILL CITY      CLOUDY    33  26  75 NW25G39   29.84F WCI  20
NORTON         CLOUDY    30  23  74 N25G36    29.82  WCI  16
PHILLIPSBURG   SUNNY     34  27  75 NW23G30   29.80R WCI  22
SMITH CENTER   CLOUDY    34  27  75 NW26G38   29.74R WCI  21
BELOIT         FOG       32  28  86 NW26G37   29.68S VSB 3/4 WCI  18
HAYS           CLOUDY    35  27  72 NW28G36   29.78F WCI  22
RUSSELL        CLOUDY    35  27  72 NW35G46   29.74S WCI  21
CONCORDIA      CLOUDY    32  28  85 NW23G40   29.62R WCI  19
SALINA         LGT SNOW  34  32  92 NW29      29.66S VSB 3/4 WCI  20
TOPEKA         LGT RAIN  35  34  96 W15G23    29.47S WCI  25



USA.gov is the U.S. government's official web portal to all federal, state and local government web resources and services.